• In Romania
  • List of Countries
  • For 7 days
  • Water Temperature
  • Satellite Maps
  • Weather Map
  • Weather Widgets
  • user-avatar
    Login

    Hourly Weather Sputnik

    Today, 25 June, Monday

    Time Temperature Precipitation Wind Pressure Humidity
    00:00 +22°C° 0 mm 1 mps 756 mmHg 86%
    01:00 +22°C° 0 mm 1 mps 756 mmHg 88%
    02:00 +21°C° 0 mm 1 mps 756 mmHg 89%
    03:00 +21°C° 0 mm 1 mps 756 mmHg 91%
    04:00 +22°C° 0 mm 1 mps 756 mmHg 88%
    05:00 +23°C° 0 mm 1 mps 757 mmHg 85%
    06:00 +25°C° 0 mm 1 mps 757 mmHg 81%
    07:00 +26°C° 0 mm 1 mps 757 mmHg 75%
    08:00 +28°C° 0 mm 1 mps 757 mmHg 69%
    09:00 +29°C° 0 mm 1 mps 757 mmHg 63%
    10:00 +30°C° 0 mm 1 mps 757 mmHg 59%
    11:00 +31°C° 0 mm 1 mps 757 mmHg 55%
    12:00 +32°C° 0 mm 1 mps 757 mmHg 51%
    13:00 +32°C° 0 mm 1 mps 757 mmHg 50%
    14:00 +33°C° 0 mm 1 mps 757 mmHg 48%
    15:00 +31°C° 0 mm 0 mps 757 mmHg 47%
    16:00 +33°C° 0 mm 1 mps 757 mmHg 51%
    17:00 +32°C° 0 mm 1 mps 757 mmHg 54%
    18:00 +32°C° 0 mm 1 mps 757 mmHg 58%
    19:00 +30°C° 0 mm 1 mps 757 mmHg 62%
    20:00 +28°C° 0 mm 1 mps 757 mmHg 66%
    21:00 +26°C° 0 mm 1 mps 757 mmHg 69%
    22:00 +25°C° 0 mm 1 mps 757 mmHg 71%
    23:00 +24°C° 0 mm 1 mps 757 mmHg 72%

    Tomorrow, 26 June, Tuesday

    Time Temperature Precipitation Wind Pressure Humidity
    00:00 +24°C° 0 mm 1 mps 757 mmHg 74%
    01:00 +23°C° 0 mm 1 mps 757 mmHg 74%
    02:00 +23°C° 0 mm 1 mps 757 mmHg 75%
    03:00 +22°C° 0 mm 1 mps 757 mmHg 76%
    04:00 +22°C° 0 mm 0 mps 757 mmHg 74%
    05:00 +23°C° 0 mm 0 mps 757 mmHg 71%
    06:00 +24°C° 0 mm 0 mps 758 mmHg 69%
    07:00 +26°C° 0 mm 0 mps 758 mmHg 65%
    08:00 +27°C° 0 mm 0 mps 758 mmHg 62%
    09:00 +30°C° 0 mm 1 mps 758 mmHg 58%
    10:00 +31°C° 0 mm 1 mps 757 mmHg 55%
    11:00 +32°C° 0 mm 1 mps 757 mmHg 53%
    12:00 +32°C° 0 mm 2 mps 757 mmHg 51%
    13:00 +32°C° 0 mm 2 mps 757 mmHg 51%
    14:00 +33°C° 0 mm 3 mps 757 mmHg 52%
    15:00 +33°C° 0 mm 3 mps 757 mmHg 52%
    16:00 +33°C° 0.1 mm 3 mps 757 mmHg 58%
    17:00 +31°C° 0.1 mm 3 mps 757 mmHg 64%
    18:00 +30°C° 0.1 mm 3 mps 756 mmHg 69%
    19:00 +28°C° 0 mm 3 mps 757 mmHg 73%
    20:00 +27°C° 0 mm 3 mps 757 mmHg 77%
    21:00 +25°C° 0 mm 2 mps 757 mmHg 81%
    22:00 +25°C° 0 mm 2 mps 757 mmHg 84%
    23:00 +24°C° 0 mm 2 mps 757 mmHg 87%

    Day after tomorrow, 27 June, Wednesday

    Time Temperature Precipitation Wind Pressure Humidity
    00:00 +23°C° 0 mm 2 mps 757 mmHg 90%
    01:00 +23°C° 0 mm 2 mps 757 mmHg 91%
    02:00 +23°C° 0 mm 2 mps 757 mmHg 92%
    03:00 +21°C° 0 mm 2 mps 757 mmHg 93%
    04:00 +22°C° 0 mm 3 mps 757 mmHg 89%
    05:00 +24°C° 0 mm 3 mps 757 mmHg 85%
    06:00 +24°C° 0 mm 3 mps 757 mmHg 81%
    07:00 +26°C° 0 mm 3 mps 757 mmHg 76%
    08:00 +27°C° 0 mm 3 mps 757 mmHg 72%
    09:00 +29°C° 0 mm 3 mps 757 mmHg 67%
    10:00 +30°C° 0 mm 4 mps 756 mmHg 64%
    11:00 +32°C° 0 mm 4 mps 756 mmHg 60%
    12:00 +33°C° 0 mm 4 mps 756 mmHg 57%
    13:00 +33°C° 0 mm 4 mps 756 mmHg 57%
    14:00 +33°C° 0 mm 4 mps 756 mmHg 58%
    15:00 +33°C° 0 mm 4 mps 756 mmHg 58%
    16:00 +32°C° 0.1 mm 4 mps 755 mmHg 62%
    17:00 +30°C° 0.1 mm 4 mps 755 mmHg 66%
    18:00 +29°C° 0.1 mm 3 mps 755 mmHg 71%
    19:00 +28°C° 0 mm 3 mps 755 mmHg 75%
    20:00 +26°C° 0 mm 3 mps 756 mmHg 79%
    21:00 +25°C° 0 mm 3 mps 756 mmHg 84%
    22:00 +24°C° 0 mm 3 mps 756 mmHg 86%
    23:00 +22°C° 0 mm 3 mps 755 mmHg 88%

    28 June, Thursday

    Time Temperature Precipitation Wind Pressure Humidity
    00:00 +22°C° 0 mm 3 mps 755 mmHg 90%
    01:00 +21°C° 0 mm 3 mps 755 mmHg 91%
    02:00 +21°C° 0 mm 3 mps 755 mmHg 92%
    03:00 +20°C° 0 mm 3 mps 755 mmHg 93%
    04:00 +21°C° 0 mm 3 mps 755 mmHg 90%
    05:00 +21°C° 0 mm 4 mps 755 mmHg 87%
    06:00 +22°C° 0 mm 4 mps 755 mmHg 84%
    07:00 +25°C° 0 mm 5 mps 755 mmHg 79%
    08:00 +26°C° 0 mm 5 mps 755 mmHg 73%
    09:00 +27°C° 0 mm 5 mps 755 mmHg 68%
    10:00 +28°C° 0 mm 5 mps 755 mmHg 64%
    11:00 +29°C° 0 mm 6 mps 755 mmHg 61%
    12:00 +30°C° 0 mm 6 mps 755 mmHg 58%
    13:00 +30°C° 0 mm 6 mps 755 mmHg 59%
    14:00 +30°C° 0 mm 6 mps 755 mmHg 59%
    15:00 +30°C° 0 mm 6 mps 754 mmHg 59%
    16:00 +29°C° 0 mm 5 mps 755 mmHg 62%
    17:00 +28°C° 0 mm 5 mps 755 mmHg 65%
    18:00 +28°C° 0 mm 4 mps 755 mmHg 68%
    19:00 +26°C° 0 mm 4 mps 755 mmHg 70%
    20:00 +23°C° 0 mm 4 mps 755 mmHg 72%
    21:00 +22°C° 0 mm 4 mps 755 mmHg 74%
    22:00 +21°C° 0 mm 3 mps 755 mmHg 76%
    23:00 +20°C° 0 mm 3 mps 755 mmHg 78%

    29 June, Friday

    Time Temperature Precipitation Wind Pressure Humidity
    00:00 +19°C° 0 mm 3 mps 755 mmHg 79%
    01:00 +19°C° 0 mm 3 mps 755 mmHg 80%
    02:00 +18°C° 0 mm 3 mps 755 mmHg 81%
    03:00 +18°C° 0 mm 3 mps 755 mmHg 82%
    04:00 +19°C° 0 mm 3 mps 755 mmHg 79%
    05:00 +19°C° 0 mm 3 mps 755 mmHg 77%
    06:00 +20°C° 0 mm 3 mps 755 mmHg 75%
    07:00 +22°C° 0 mm 3 mps 755 mmHg 69%
    08:00 +25°C° 0 mm 3 mps 755 mmHg 64%
    09:00 +27°C° 0 mm 3 mps 755 mmHg 58%
    10:00 +28°C° 0 mm 3 mps 754 mmHg 53%
    11:00 +29°C° 0 mm 3 mps 754 mmHg 49%
    12:00 +30°C° 0 mm 3 mps 754 mmHg 44%
    13:00 +30°C° 0 mm 3 mps 754 mmHg 45%
    14:00 +29°C° 0 mm 3 mps 754 mmHg 46%
    15:00 +29°C° 0 mm 3 mps 753 mmHg 47%
    16:00 +29°C° 0 mm 3 mps 753 mmHg 52%
    17:00 +28°C° 0 mm 3 mps 753 mmHg 56%
    18:00 +27°C° 0 mm 3 mps 753 mmHg 61%
    19:00 +26°C° 0 mm 2 mps 753 mmHg 66%
    20:00 +24°C° 0 mm 2 mps 754 mmHg 71%
    21:00 +21°C° 0 mm 2 mps 754 mmHg 75%
    22:00 +20°C° 0 mm 2 mps 754 mmHg 78%
    23:00 +20°C° 0 mm 2 mps 753 mmHg 81%

    30 June, Saturday

    Time Temperature Precipitation Wind Pressure Humidity
    00:00 +20°C° 0 mm 1 mps 753 mmHg 83%
    01:00 +19°C° 0 mm 1 mps 753 mmHg 85%
    02:00 +19°C° 0 mm 1 mps 753 mmHg 86%
    03:00 +19°C° 0 mm 1 mps 753 mmHg 88%
    04:00 +20°C° 0 mm 1 mps 754 mmHg 84%
    05:00 +21°C° 0 mm 1 mps 754 mmHg 80%
    06:00 +22°C° 0 mm 1 mps 754 mmHg 76%
    07:00 +23°C° 0 mm 1 mps 754 mmHg 70%
    08:00 +25°C° 0 mm 2 mps 754 mmHg 64%
    09:00 +26°C° 0 mm 2 mps 754 mmHg 58%
    10:00 +28°C° 0 mm 1 mps 753 mmHg 54%
    11:00 +29°C° 0 mm 1 mps 753 mmHg 50%
    12:00 +30°C° 0 mm 1 mps 753 mmHg 46%
    13:00 +28°C° 0 mm 0 mps 753 mmHg 44%
    14:00 +28°C° 0 mm 0 mps 753 mmHg 43%
    15:00 +29°C° 0 mm 0 mps 753 mmHg 41%
    16:00 +28°C° 0 mm 0 mps 752 mmHg 45%
    17:00 +30°C° 0 mm 1 mps 752 mmHg 49%
    18:00 +29°C° 0 mm 1 mps 752 mmHg 53%
    19:00 +27°C° 0 mm 1 mps 752 mmHg 56%
    20:00 +25°C° 0 mm 1 mps 752 mmHg 58%
    21:00 +23°C° 0 mm 1 mps 752 mmHg 61%
    22:00 +23°C° 0 mm 2 mps 752 mmHg 64%
    23:00 +21°C° 0 mm 2 mps 752 mmHg 68%
    Show more